Location: Moscow
(55.7500°N, 37.5830°E)
Time: 01:55:34
(UTC+03:00)

Tiros 1 - Pass Details

Date: 08 December 2021
Orbit: 630 x 663 km, 48.4° (Epoch: 20 January)

Event Time Altitude Azimuth Distance (km) Brightness Sun altitude
Rises 18:30:26 0° 229° (SW) 2,915 11.5 -19.9°
Reaches altitude 10° 18:33:02 10° 216° (SW) 2,013 10.3 -20.2°
Maximum altitude 18:36:50 26° 161° (SSE) 1,270 8.5 -20.7°
Enters shadow 18:37:33 24° 146° (SE) 1,305 8.5 -20.8°
